[[{"header":{"parameterUnit":"m.s-1","parameterCategory":1,"la1":30.2992,"la2":30.254,"lo1":-89.0895,"lo2":-89.0443,"dy":0.0025,"dx":0.0025,"nx":19,"ny":19,"refTime":"2026-05-08T09:00:00:Z","depth":0,"parameterNumber":2,"parameterNumberName":"U-component_of_WINDS"},"data":[0,0,0,-5.5877,-5.5879,-5.5965,-5.5965,-5.6107,-5.6109,0,0,0,0,0,0,0,0,0,0,0,-5.5872,-5.5874,-5.5877,-5.588,-5.5965,-5.5965,-5.6107,-5.6109,0,0,0,0,0,0,0,0,0,0,0,-5.5872,-5.5874,-5.5876,-5.588,-5.5965,-5.5965,-5.6106,-5.603,0,0,0,0,0,0,0,0,0,0,-5.5941,-5.5957,-5.5873,-5.5876,-5.5881,-5.5965,-5.5965,-5.6026,-5.6035,-5.6083,0,-5.6131,0,-5.6123,-5.612,-5.6121,0,0,0,-5.5864,-5.595,-5.5955,-5.5876,-5.5882,-5.5965,-5.5922,-5.603,-5.6041,-5.6095,-5.6133,-5.6137,-5.6125,-5.6121,-5.6122,-5.6454,-5.6456,0,0,-5.5859,-5.5899,-5.5948,-5.5962,-5.5953,-5.5919,-5.5925,-5.6036,-5.608,-5.6134,-5.614,-5.6127,-5.6123,-5.6124,-5.6451,-5.6454,0,0,0,-5.5856,-5.5896,-5.5897,-5.5958,-5.5971,-5.5922,-5.5929,-5.6075,-5.6072,-5.6141,-5.6129,-5.6124,-5.6126,-5.6449,-5.6452,-5.6605,0,0,0,-5.5853,-5.5894,-5.5896,-5.5921,-5.5969,-5.6024,-5.5966,-5.6065,-5.6076,-5.6128,-5.6124,-5.6127,-5.6446,-5.6451,-5.6596,-5.6671,0,0,0,-5.586,-5.5895,-5.5915,-5.5923,-5.5961,-5.6021,-5.6024,-5.6066,-5.6069,-5.6121,-5.6128,-5.6444,-5.645,-5.6587,-5.6657,-5.6771,0,0,0,-5.5878,-5.6048,-5.5918,-5.6102,-5.5961,-5.6116,-5.6023,-5.6136,-5.6199,-5.6125,-5.6447,-5.6452,-5.6584,-5.6648,-5.6762,-5.6875,-5.6926,0,0,-5.6115,-5.6078,-5.6183,-5.6069,-5.6258,-5.6099,-5.631,-5.6329,-5.6296,-5.6403,-5.641,-5.6599,-5.6656,-5.6769,-5.7194,-5.7234,0,0,0,-5.6272,-5.6348,-5.6389,-5.6452,-5.6471,-5.6494,-5.6477,-5.6484,-5.6573,-5.636,-5.6669,-5.6702,-5.6767,-5.6819,-5.6853,-5.6907,-5.6478,-5.6477,-5.6476,-5.6663,-5.6614,-5.6785,-5.6747,-5.6809,-5.679,-5.6835,-5.6841,-5.6772,-5.6846,-5.6878,-5.7141,-5.7204,-5.723,-5.7286,-5.6932,-5.6933,-5.6933,-5.6934,-5.7005,-5.7106,-5.7012,-5.7145,-5.7092,-5.7202,-5.719,-5.7138,-5.7232,-5.7113,-5.7168,-5.7043,-5.7276,-5.7322,-5.6945,-5.6943,-5.6941,-5.694,-5.694,-5.7257,-5.7297,-5.7303,-5.7389,-5.746,-5.7414,-5.7511,-5.7458,-5.7408,-5.7463,-5.7491,-5.7488,-5.748,-5.7479,-5.748,-5.7481,-5.7482,-5.7483,-5.7483,-5.7516,-5.7518,-5.7606,-5.7642,-5.7676,-5.7713,-5.7696,-5.7727,-5.7748,-5.7702,-5.7702,-5.7627,-5.7308,-5.7229,-5.7497,-5.7495,-5.7493,-5.7492,-5.7491,-5.7883,-5.7792,-5.7928,-5.7962,-5.8,-5.8075,-5.8006,-5.8075,-5.8092,-5.8141,-5.8054,-5.7827,-5.7785,-5.7757,-5.7692,-5.8064,-5.8064,-5.8064,-5.8064,-5.8096,-5.807,-5.8198,-5.8256,-5.8306,-5.8258,-5.8414,-5.8402,-5.8376,-5.8384,-5.8322,-5.823,-5.8204,-5.8178,-5.8141,-5.8079,-5.8542,-5.8542,-5.8542,-5.8319,-5.8296,-5.8439,-5.8413,-5.8439,-5.8462,-5.8607,-5.8676,-5.8627,-5.8561,-5.8389,-5.8369,-5.822,-5.8175,-5.8106,-5.805,-5.7935,0,0]},{"header":{"parameterUnit":"m.s-1","parameterCategory":1,"la1":30.2992,"la2":30.254,"lo1":-89.0895,"lo2":-89.0443,"dy":0.0025,"dx":0.0025,"nx":19,"ny":19,"refTime":"2026-05-08T09:00:00:Z","depth":0,"parameterNumber":3,"parameterNumberName":"V-component_of_WINDS"},"data":[0,0,0,0.4231,0.4231,0.4206,0.4206,0.4174,0.4174,0,0,0,0,0,0,0,0,0,0,0,0.4239,0.4239,0.4231,0.4231,0.4206,0.4206,0.4174,0.4174,0,0,0,0,0,0,0,0,0,0,0,0.4239,0.4239,0.4239,0.4231,0.4206,0.4206,0.4174,0.4192,0,0,0,0,0,0,0,0,0,0,0.4217,0.4225,0.4239,0.4239,0.423,0.4206,0.4206,0.4193,0.4191,0.4185,0,0.4181,0,0.4177,0.4171,0.4171,0,0,0,0.423,0.4227,0.422,0.4239,0.423,0.4206,0.4217,0.4192,0.419,0.4183,0.4181,0.4179,0.4177,0.4171,0.4171,0.4144,0.4144,0,0,0.4231,0.4235,0.4221,0.4218,0.4223,0.4218,0.4216,0.4191,0.4188,0.4181,0.4179,0.4176,0.4171,0.4171,0.4144,0.4144,0,0,0,0.4236,0.4236,0.4229,0.4219,0.4215,0.4217,0.4215,0.4189,0.4187,0.4178,0.4176,0.4171,0.4171,0.4145,0.4144,0.4145,0,0,0,0.4236,0.4238,0.423,0.4232,0.4216,0.4202,0.4214,0.4189,0.4186,0.4176,0.4171,0.417,0.4145,0.4144,0.4145,0.4144,0,0,0,0.4241,0.4239,0.4236,0.4232,0.4222,0.4202,0.4199,0.4188,0.4184,0.4171,0.417,0.4145,0.4144,0.4145,0.4144,0.4139,0,0,0,0.4246,0.4234,0.4236,0.4223,0.4222,0.4203,0.4199,0.4184,0.4173,0.4171,0.4145,0.4144,0.4145,0.4144,0.4139,0.4135,0.4133,0,0,0.4234,0.4233,0.4225,0.4226,0.4208,0.4207,0.4189,0.4174,0.4169,0.4153,0.4152,0.4145,0.4144,0.4139,0.4126,0.4125,0,0,0,0.4223,0.4217,0.4212,0.4203,0.4193,0.4185,0.4173,0.4169,0.4155,0.4162,0.4142,0.4141,0.4138,0.4135,0.4134,0.4132,0.4144,0.4144,0.4144,0.4209,0.4206,0.4193,0.4187,0.4178,0.4168,0.4161,0.4152,0.4149,0.4144,0.4139,0.4132,0.4129,0.4129,0.4126,0.4137,0.4137,0.4137,0.4137,0.4191,0.4183,0.4182,0.4169,0.4166,0.4154,0.4145,0.4144,0.4133,0.4135,0.4131,0.4133,0.4128,0.4125,0.4137,0.4137,0.4137,0.4137,0.4137,0.4181,0.4177,0.4173,0.4162,0.4154,0.4148,0.4139,0.4135,0.4131,0.4128,0.4123,0.4123,0.4122,0.4126,0.4126,0.4126,0.4126,0.4126,0.4126,0.4172,0.4168,0.4161,0.4153,0.4148,0.4142,0.4134,0.4129,0.4122,0.412,0.412,0.4118,0.4128,0.4131,0.4126,0.4126,0.4126,0.4126,0.4126,0.4154,0.4159,0.4148,0.4144,0.4135,0.4128,0.4125,0.4116,0.4111,0.4107,0.4106,0.4115,0.4113,0.4114,0.4116,0.4107,0.4107,0.4107,0.4107,0.4146,0.4146,0.4136,0.4129,0.4123,0.412,0.4109,0.4104,0.4099,0.4096,0.4097,0.41,0.4101,0.4099,0.41,0.4102,0.4089,0.4089,0.4089,0.4135,0.4135,0.4125,0.4123,0.4117,0.4111,0.4101,0.4094,0.4089,0.4088,0.4094,0.4095,0.4099,0.4101,0.4098,0.41,0.4103,0,0]}]]